Regional Weather Roundup
Issued by NWS

Home | Current Version | Previous Version | Text Only | Print | Product List | Glossary Off
Versions: 1 2 3 4 5 6 7 8 9 10 11 12 13 14 15 16 17 18 19 20 21 22 23 24 25 26 27 28 29 30 31 32 33 34 35 36 37 38 39 40 41 42 43 44 45 46 47 48 49 50

760
ASUS43 KIND 180609
RWRIN

WEATHER ROUNDUP FOR INDIANA
NATIONAL WEATHER SERVICE INDIANAPOLIS IN
100 AM EST MON DEC 18 2017

NOTE: "FAIR" INDICATES FEW OR NO CLOUDS BELOW 12,000 FEET WITH NO
SIGNIFICANT WEATHER AND/OR OBSTRUCTIONS TO VISIBILITY.

* - STATION DOES NOT REPORT WEATHER SUCH AS PRECIPITATION OR FOG.

+ - STATION NOT QUALITY CONTROLLED BY THE NATIONAL WEATHER SERVICE.
    USE DATA WITH CAUTION...ESPECIALLY DEWPOINT AND RELATIVE
    HUMIDITY OBSERVATIONS.

INZ001>003-010>013-019-020-180700-
NORTHWEST INDIANA

CITY           SKY/WX    TMP DP  RH WIND       PRES   REMARKS
GARY /AIRPORT/ CLOUDY    44  38  78 SW9       29.99F
KNOX *+        CLOUDY    41  37  87 SW8       30.01S
LA PORTE +     DRIZZLE   38  36  91 S6        30.00F WCI  34
6HR MIN TEMP:  38; 6HR MAX TEMP:  39;

MICHIGAN CITY+ CLOUDY    41  36  81 S7        29.99F
MONTICELLO +   CLOUDY    40  38  90 SW8       30.02S WCI  35
6HR MIN TEMP:  40; 6HR MAX TEMP:  42;

RENSSELAER +   CLOUDY    41  36  81 S8        30.01F
VALPARAISO     CLOUDY    43  38  82 SW12      30.00F
6HR MIN TEMP:  41; 6HR MAX TEMP:  43;


$$

LMZ046-743>745-180700-
SOUTHERN LAKE MICHIGAN

STATION/POSITION TIME  TEMP    WIND        PRES    WAVE
                       AIR SEA DIR/SP/G            HT
                 (UTC) (F)     (DEG/KT/KT) (MB)    (FT)
BURNS HARBOR     0540   43     210/ 10/ 13 1016.3S
MICHIGAN CITY    0540   42     200/  9/ 10   N/A

$$

INZ004-005-014>016-021>024-180700-
NORTH CENTRAL INDIANA

CITY           SKY/WX    TMP DP  RH WIND       PRES   REMARKS
GOSHEN         CLOUDY    39  36  89 SW10      30.00F WCI  32
6HR MIN TEMP:  38; 6HR MAX TEMP:  40;

LOGANSPORT +   CLOUDY    37  36  93 SW9       30.03F WCI  31
PERU/GRISSOM   CLOUDY    39  39 100 SW9       30.01F WCI  33
6HR MIN TEMP:  39; 6HR MAX TEMP:  40;

ROCHESTER +    CLOUDY    41  37  87 SW6       30.02S
SOUTH BEND     CLOUDY    38  37  97 SW10      30.00F WCI  31
6HR MIN TEMP:  36; 6HR MAX TEMP:  38;

WARSAW +       CLOUDY    39  36  87 SW5       30.01F WCI  36

$$

INZ006>009-017-018-025>027-180700-
NORTHEAST INDIANA

CITY           SKY/WX    TMP DP  RH WIND       PRES   REMARKS
AUBURN +       CLOUDY    39  36  87 SW5       30.02F WCI  36
FORT WAYNE     CLOUDY    39  36  89 SW8       30.03F WCI  33
6HR MIN TEMP:  37; 6HR MAX TEMP:  39;

HUNTINGTON +   CLOUDY    39  37  90 SW7       30.02F WCI  34
6HR MIN TEMP:  38; 6HR MAX TEMP:  39;

KENDALLVILLE + CLOUDY    38  37  93 SW9       30.00F WCI  32

$$

INZ028-029-035-036-043>045-051>053-180700-
WEST CENTRAL INDIANA

CITY           SKY/WX    TMP DP  RH WIND       PRES   REMARKS
CRAWFORDSVL +  CLOUDY    39  39 100 SW9       30.04F WCI  32
6HR MIN TEMP:  34; 6HR MAX TEMP:  39;

GREENCASTLE +  CLOUDY    41  37  87 SW7       30.06S
LAFAYETTE      CLOUDY    42  39  89 SW7       30.03F
6HR MIN TEMP:  40; 6HR MAX TEMP:  42;

TERRE HAUTE    CLOUDY    43  39  86 SW8       30.07F
6HR MIN TEMP:  42; 6HR MAX TEMP:  44;


$$

INZ030>032-037>040-046>048-054>057-064-065-180700-
CENTRAL INDIANA

CITY           SKY/WX    TMP DP  RH WIND       PRES   REMARKS
FRANKFORT +    CLOUDY    43  40  88 SW9       30.05F
6HR MIN TEMP:  41; 6HR MAX TEMP:  43;

GREENWOOD *+   CLOUDY    44  40  85 S7        30.06F
6HR MIN TEMP:  39; 6HR MAX TEMP:  45;

INDIANAPOLIS   CLOUDY    41  38  89 S8        30.06F
6HR MIN TEMP:  36; 6HR MAX TEMP:  42;

-EAGLE CREEK   CLOUDY    41  37  86 SW6       30.05F
6HR MIN TEMP:  38; 6HR MAX TEMP:  43;

KOKOMO +       CLOUDY    40  37  89 SW9       30.04F WCI  34
6HR MIN TEMP:  38; 6HR MAX TEMP:  40;

MARION +       CLOUDY    37  35  90 S6        30.04F WCI  32
MT COMFORT *+  CLOUDY    37  37 100 S6        30.05F WCI  33
SHELBYVILLE    CLOUDY    41  35  79 S8        30.06F
6HR MIN TEMP:  38; 6HR MAX TEMP:  43;

ZIONSVILLE +   CLOUDY    39  37  91 SW8       30.05F WCI  34
6HR MIN TEMP:  38; 6HR MAX TEMP:  40;


$$

INZ033-034-041-042-049-050-058-059-180700-
EAST CENTRAL INDIANA

CITY           SKY/WX    TMP DP  RH WIND       PRES   REMARKS
MUNCIE         CLOUDY    42  34  73 SW8       30.04F
6HR MIN TEMP:  41; 6HR MAX TEMP:  43;

RICHMOND +     CLOUDY    34  34 100 S6        30.07S FOG     WCI  29

$$

INZ060-061-067>069-081>083-085>088-180700-
SOUTHWEST INDIANA

CITY           SKY/WX    TMP DP  RH WIND       PRES   REMARKS
EVANSVILLE     LGT RAIN  44  43  96 S7        30.12F
6HR MIN TEMP:  42; 6HR MAX TEMP:  44; 6HR PCP: TRACE;

HUNTINGBURG +  CLOUDY    42  41  96 S6        30.11F FOG
6HR MIN TEMP:  41; 6HR MAX TEMP:  43; 6HR PCP: TRACE;

WASHINGTON +   CLOUDY    42  41  94 S7        30.09F FOG
6HR MIN TEMP:  42; 6HR MAX TEMP:  43;


$$

INZ062-063-066-070>080-084-089>092-180700-
SOUTH CENTRAL AND SOUTHEAST INDIANA

CITY           SKY/WX    TMP DP  RH WIND       PRES   REMARKS
BEDFORD +      CLOUDY    41  39  93 S5        30.08F
BLOOMINGTON    CLOUDY    42  38  85 S5        30.07F
6HR MIN TEMP:  42; 6HR MAX TEMP:  44;

MADISON *+     CLOUDY    41  37  87 CALM      30.12S
NORTH VERNON + CLOUDY    39  37  93 S5        30.10F FOG     WCI  36
SEYMOUR +      CLOUDY    43  39  87 CALM      30.10F

$$





USA.gov is the U.S. government's official web portal to all federal, state and local government web resources and services.